Location: Petruro
(41.0333°N, 14.7833°E)
Time: 12:07:37
(UTC+00:00)

DELTA 2 R/B (1) - Pass Details

Date: 31 October 2021
Orbit: 790 x 802 km, 39.6° (Epoch: 29 November)

Event Time Altitude Azimuth Distance (km) Brightness Sun altitude
Rises 17:57:56 0° 251° (WSW) 3,298 8.0 -23.1°
Reaches altitude 10° 18:00:26 10° 249° (WSW) 2,368 6.9 -23.6°
Maximum altitude 18:05:58 67° 168° (SSE) 864 3.6 -24.7°
Enters shadow 18:06:31 62° 134° (SE) 891 3.5 -24.8°
